Location: Besigheim
(48.9980°N, 9.1427°E)
Time: 17:12:50
(UTC+00:00)

SL-24 R/B - RUBIN 2 - Pass Details

Date: 19 February 2026
Orbit: 603 x 984 km, 64.6° (Epoch: 8 March)

Event Time Altitude Azimuth Distance (km) Brightness Sun altitude
Exits shadow 04:15:59 12° 340° (NNW) 1,845 5.9 -21.8°
Maximum altitude 04:16:25 13° 346° (NNW) 1,832 5.9 -21.7°
Drops below altitude 10° 04:18:23 10° 12° (NNE) 1,982 6.4 -21.4°
Sets 04:21:55 0° 43° (NE) 2,866 7.7 -20.8°
